Location: Newark
(48.1500°N, 2.9667°W)
Time: 14:14:02
(UTC+00:00)

Vanguard 2 Rocket - Visible Passes

Search period start: 19 January 2020 00:00
Search period end: 29 January 2020 00:00
Orbit: 554 x 3326 km, 32.9° (Epoch: 18 January)

Date Brightness Start Highest point End Pass type
(mag) Time Alt. Az. Time Alt. Az. Time Alt. Az.
19 Jan 9.3 06:54:07 10° SSW 06:58:52 21° SSE 07:05:38 10° ESE visible
20 Jan 9.4 05:57:02 10° S 05:59:52 13° SE 06:03:18 10° ESE visible
21 Jan 9.1 07:07:31 10° SSW 07:12:23 23° SSE 07:19:28 10° ESE visible
22 Jan 9.0 06:09:46 10° SSW 06:13:16 17° SSE 06:17:49 10° ESE visible
24 Jan 8.8 06:23:09 10° SSW 06:26:51 19° SSE 06:31:47 10° ESE visible
25 Jan 8.8 05:25:38 10° S 05:27:50 13° SSE 05:30:24 10° SE visible
26 Jan 8.7 06:36:53 10° SW 06:40:33 19° S 06:45:25 10° SE visible
27 Jan 8.6 05:38:53 10° SSW 05:41:28 15° SSE 05:44:34 10° SE visible
28 Jan 8.7 06:50:58 10° SW 06:54:20 17° S 06:58:40 10° SE visible
